SCP
0 0 0 0 0 0 0 0 0 0 0 0 0 0 0 0 0 0 0 0 0 -0 -0 -0 0 0 0 0 0 0 0 0 0 0 0 0 0 0 0 0 0 0 0 0 0 0 0
0 0 0 0 0 0 -0 0 0 0 0 0 0 0 0 0 0 0 0 0 0 0 -0 -0 -0 0 0 0 0 0 0 0 0 0 0 0 0 0 0 0 0 0 0 0 0 0 0
0 0 0 0 -0 0 0 0 0 0 0 0 0 0 0 0 0 0 0 0 0 0 0 -0 -0 0 0 -0 -0 0 0 0 0 0 0 0 0 0 0 0 0 0 0 0 0 0 0
0 0 0 -0 0 0 0 -0 0 0 0 0 0 0 0 0 0 0 0 0 0 0 0 0 -0 0 0 0 0 0 -0 -0 0 0 0 0 0 0 0 0 0 0 0 0 0 0 0
0 0 -0 -0 -0 0 0 0 0 0 0 0 0 0 0 0 0 0 0 0 0 0 0 0 0 0 0 0 0 0 -0 0 0 0 0 0 0 0 0 0 0 0 0 0 0 0 0
-0 -0 0 -0 -0 0 0 0 0 0 0 0 0 0 0 0 0 0 0 0 0 0 0 0 0 0 0 0 0 0 0 0 0 0 0 0 0 0 0 0 0 0 0 0 0 0 0
0 0 0 0 -0 -0 -0 0 0 0 0 0 0 0 0 0 0 0 0 0 0 0 0 0 0 0 0 0 0 0 0 0 0 0 0 0 0 0 0 0 0 0 0 0 0 0 0
0 0 0 0 0 -0 -0 0 0 0 0 0 0 0 0 0 0 0 0 0 0 0 0 0 0 0 0 0 0 0 0 0 0 0 0 0 0 0 0 0 0 0 0 0 0 0 0
0 0 0 0 0 0 -0 0 0 0 0 0 0 0 0 0 0 0 0 0 0 0 0 0 0 0 0 0 0 0 0 0 0 0 0 0 0 0 0 0 0 0 0 0 0 0 0
0 0 0 -0 -0 -0 -0 0 0 0 0 0 0 0 0 0 0 0 0 0 0 0 0 0 0 0 0 0 0 0 0 0 0 0 0 0 0 0 0 0 0 0 0 0 0 0 0
0 0 0 -0 -0 -0 0 0 0 0 0 0 0 0 0 0 0 0 0 0 0 0 0 0 0 0 0 0 0 0 0 0 0 0 0 0 0 0 0 0 0 0 0 0 0 0 0
0 0 0 -0 -0 -0 -0 0 0 0 0 0 0 0 0 0 0 0 0 0 0 0 0 0 0 0 0 0 0 0 0 0 0 0 0 0 0 0 0 0 0 0 0 0 0 0 0
0 0 0 -0 0 -0 -0 0 0 0 0 0 0 0 0 0 0 0 0 0 0 0 0 0 0 0 0 0 0 0 0 0 0 0 0 0 0 0 0 0 0 0 0 0 0 0 0
0 0 0 -0 -0 -0 -0 0 -0 0 0 0 0 0 0 0 0 0 0 0 -0 0 0 0 0 0 0 0 0 0 0 0 0 0 0 0 0 0 0 0 0 0 0 0 0 0 0
0 0 0 0 -0 -0 0 -0 -0 0 0 0 0 0 0 0 0 0 0 0 0 0 0 0 0 0 0 0 0 0 0 0 0 0 0 0 0 0 0 0 0 0 0 0 0 0 0
0 -0 -0 -0 0 0 -0 -0 -0 0 0 0 0 0 0 0 0 0 0 0 0 0 0 0 0 0 0 0 0 0 0 0 0 0 0 0 0 0 0 0 0 0 0 0 0 0 0
-0 -0 0 0 0 0 0 -0 -0 0 0 0 0 0 0 0 0 0 0 0 0 0 0 0 0 0 0 0 0 0 0 0 0 0 0 0 0 0 0 0 0 0 0 0 0 0 0
-0 -0 -0 -0 0 0 0 0 0 0 0 0 0 0 0 0 0 0 0 0 0 0 0 0 0 0 0 0 0 0 0 0 0 0 0 0 0 0 0 0 0 0 0 0 0 0 0
-0 0 -0 0 0 0 0 -0 0 0 0 0 0 0 0 0 0 0 0 0 0 0 0 0 0 0 0 0 0 0 0 0 0 0 0 0 0 0 0 0 0 0 0 0 0 0 0
0 0 0 0 -0 0 0 0 0 0 0 0 0 0 0 0 0 0 0 0 0 0 0 0 0 0 0 0 0 0 0 0 0 0 0 0 0 0 0 0 0 0 0 0 0 0 0
-0 -0 0 -0 0 0 0 0 0 0 0 0 0 0 0 0 0 0 0 0 0 0 0 0 0 0 0 0 0 0 0 0 0 0 0 0 0 0 0 0 0 0 0 0 0 0 0
-0 -0 -0 0 0 0 0 0 0 0 0 0 0 0 0 0 0 0 0 0 0 0 0 0 0 0 0 0 0 0 0 0 0 0 0 0 0 0 0 0 0 0 0 0 0 0 0
-0 -0 -0 -0 0 -0 -0 0 0 0 0 0 0 0 0 0 0 0 0 0 0 0 0 0 0 0 0 0 0 0 0 0 0 0 0 0 0 0 0 0 0 0 0 0 0 0 0
-0 -0 -0 -0 -0 0 -0 -0 0 0 0 0 0 0 0 0 0 0 0 0 0 0 0 0 0 0 0 0 0 0 0 0 0 0 0 0 0 0 0 0 0 0 0 0 0 0 0
-0 -0 -0 -0 -0 -0 -0 0 -0 -0 0 0 0 0 -0 -0 -0 -0 0 -0 -0 -0 0 0 0 0 0 0 0 0 0 0 0 0 0 0 0 0 0 0 0 0 0 0 0 0 0
-0 -0 -0 -0 -0 -0 -0 -0 -0 0 0 0 0 0 0 0 0 0 0 -0 -0 -0 0 0 -0 -0 0 0 0 0 0 0 0 0 0 0 0 0 0 0 0 0 0 0 0 0 0
-0 -0 -0 -0 -0 -0 -0 0 0 -0 -0 -0 0 0 0 0 0 0 0 -0 -0 -0 0 0 0 0 0 -0 -0 0 0 0 0 0 0 0 0 0 0 0 0 0 0 0 0 0 0
-0 -0 -0 -0 -0 -0 -0 -0 -0 -0 -0 0 0 0 -0 -0 0 -0 0 0 0 0 0 0 0 0 0 0 -0 -0 -0 -0 0 0 0 0 0 0 0 0 0 0 0 0 0 0 0
0 -0 -0 -0 -0 -0 -0 -0 -0 -0 -0 -0 -0 -0 0 -0 -0 -0 -0 -0 -0 -0 -0 0 -0 0 -0 -0 -0 -0 0 0 0 0 0 0 0 0 0 0 0 0 0 0 0 0 -0
Wind_Speed_500mb
31 30 28 32 37 36 37 38 26 31 27 29 32 29 26 30 28 26 33 30 26 22 25 19 24 38 28 13 18 19 10 21 18 17 19 7 3 13 4 21 10 3 4 6 5 8 15
38 40 42 40 43 43 38 27 40 35 31 30 31 29 31 28 31 25 33 32 29 24 26 24 17 26 35 24 19 22 16 11 4 18 25 19 10 11 9 10 17 9 2 8 8 13 11
41 36 30 38 36 38 27 28 28 32 28 29 34 32 33 30 32 26 33 31 28 26 27 27 19 15 25 39 28 20 24 18 2 19 24 20 19 11 9 8 24 12 6 12 12 8 6
38 38 40 40 32 31 36 43 39 37 34 32 31 27 27 32 31 28 31 30 32 27 32 33 26 18 10 32 30 38 38 45 15 11 28 31 29 26 9 6 24 9 2 12 14 7 5
40 42 47 42 34 40 43 40 31 34 34 36 31 28 26 28 30 32 28 32 30 26 22 38 39 19 6 17 40 31 35 47 27 23 11 33 38 14 16 12 7 9 12 12 10 8 3
43 44 46 45 41 35 31 28 28 31 27 35 31 26 24 25 30 31 24 31 23 41 23 51 26 14 16 20 44 31 31 29 28 28 13 16 14 14 17 18 12 7 2 5 8 11 4
47 39 35 37 43 38 30 27 23 27 24 24 28 23 21 25 32 27 27 25 16 14 38 12 32 2 18 23 30 36 41 35 26 34 17 24 12 25 38 34 13 30 16 9 12 13 8
53 54 51 51 35 42 30 27 22 17 27 22 21 15 18 28 29 26 29 24 27 7 9 7 31 13 16 23 18 36 36 28 31 30 37 14 26 32 29 19 23 20 22 29 11 4 7
55 51 48 45 48 34 34 30 24 23 21 24 16 14 23 28 23 26 24 26 23 15 6 13 23 19 17 15 15 46 45 22 26 30 30 28 6 16 31 31 23 25 32 23 4 9 3
56 53 50 42 42 40 37 32 26 23 19 21 18 22 24 21 15 19 18 22 19 20 5 4 19 15 26 14 8 36 46 25 10 27 22 21 8 16 23 30 30 25 9 13 9 4 17
54 50 45 43 42 36 38 34 27 22 19 22 22 25 22 22 7 18 17 22 25 14 10 17 14 18 26 13 30 22 33 10 22 16 10 9 14 18 22 24 25 12 17 19 11 8 9
50 47 41 40 37 39 42 35 28 23 21 25 27 24 20 14 12 15 18 16 11 9 10 5 8 13 17 8 13 29 22 12 17 13 3 7 7 5 4 10 12 28 29 18 7 3 10
45 36 27 30 36 42 45 37 28 24 27 29 32 28 22 19 10 25 23 16 5 6 3 5 4 12 15 12 18 39 34 27 18 17 20 14 10 7 19 23 23 15 25 8 7 9 12
47 39 23 30 39 46 46 36 28 27 33 35 36 29 20 15 26 23 14 3 6 3 6 4 4 12 9 7 6 30 35 26 9 7 25 24 12 22 19 18 18 28 26 8 12 13 5
47 48 45 47 51 52 47 37 32 36 38 38 34 26 24 24 23 20 8 4 6 6 7 7 2 4 5 5 7 11 24 30 17 11 11 19 12 21 27 8 26 17 17 3 7 3 2
56 60 58 56 56 52 44 37 40 44 46 44 35 26 18 12 14 5 5 6 4 6 9 6 7 11 5 7 8 6 8 3 9 5 10 5 12 13 13 9 11 10 19 7 3 9 11
57 57 58 58 53 45 40 43 49 47 45 36 25 11 8 9 12 11 5 7 5 9 10 15 9 4 11 6 7 7 8 5 7 4 3 4 3 9 15 17 24 11 14 8 6 6 6
50 53 50 48 45 44 46 49 46 40 31 23 7 6 8 8 10 6 4 3 4 6 10 8 7 11 11 12 13 9 8 10 6 8 10 4 6 10 15 6 10 24 20 22 7 7 10
47 48 46 45 45 45 43 36 37 31 26 5 9 7 15 4 6 8 1 3 10 7 12 7 8 12 8 8 9 8 7 12 18 5 4 6 2 10 7 4 1 12 25 21 24 5 18
50 52 50 48 49 39 26 31 33 19 9 8 6 4 15 20 10 6 6 5 5 15 14 13 7 8 6 13 14 9 8 6 12 14 14 7 6 6 1 9 5 13 25 28 29 14 10
41 42 43 38 34 28 26 23 22 13 11 8 7 4 4 4 13 11 6 4 4 8 10 16 10 17 6 8 10 8 11 9 12 11 7 6 7 6 9 8 2 5 15 32 37 41 22
25 27 28 23 18 11 15 18 14 1 8 3 6 10 12 8 5 10 10 7 8 5 13 11 13 15 19 13 14 5 2 7 7 7 5 5 7 9 6 5 7 5 15 17 29 35 29
25 23 20 19 20 18 16 14 7 1 3 4 18 30 11 4 2 2 4 3 8 6 14 16 9 12 17 15 15 11 8 8 8 5 4 3 4 1 8 2 2 10 19 26 23 22 26
15 15 17 19 21 22 17 17 18 18 14 26 29 15 9 5 2 6 12 14 14 12 8 9 12 7 5 3 4 8 14 12 8 5 6 4 2 2 4 3 7 6 7 7 15 29 23
10 9 11 14 17 19 23 22 20 18 16 9 14 10 9 8 13 11 16 16 16 15 11 13 12 7 5 3 3 3 4 5 10 9 3 6 1 4 4 10 16 8 4 9 13 3 9
14 11 7 8 11 15 17 19 21 23 24 12 16 16 12 20 7 14 11 8 5 5 4 6 9 11 5 5 2 2 3 2 3 3 12 6 4 5 2 7 10 11 7 10 2 6 12
20 17 12 8 7 8 11 14 15 16 19 19 20 15 12 13 15 19 5 6 8 7 5 4 3 2 6 2 3 2 5 3 5 8 7 7 5 14 10 8 11 10 7 5 3 4 15
24 22 18 15 12 11 7 4 6 7 8 10 14 11 8 9 22 11 11 9 10 8 5 13 7 2 1 2 1 3 3 5 5 6 10 13 13 9 10 9 16 18 3 8 7 7 17
30 25 21 18 14 11 10 8 6 3 1 2 5 7 11 8 16 17 10 9 9 13 11 19 2 5 7 4 1 4 3 3 3 2 12 9 12 5 16 11 6 12 17 13 13 29 35
Wind_Direction_500mb
295 288 277 281 280 281 277 264 271 268 269 278 272 263 264 250 253 260 234 235 230 248 243 230 216 207 215 225 244 260 158 187 198 186 203 143 134 127 127 329 328 316 94 81 81 125 166
280 279 277 275 284 289 280 278 256 266 267 275 277 268 254 255 250 258 229 230 223 230 235 220 230 188 187 212 247 226 113 81 210 201 196 181 131 123 89 326 324 351 16 119 100 136 150
295 270 278 272 274 279 267 278 286 256 263 267 279 284 249 248 246 247 224 226 225 220 216 213 215 194 199 219 214 223 226 246 132 221 204 192 187 150 119 329 326 298 204 161 114 113 117
295 284 290 291 263 266 268 274 277 261 257 262 271 288 251 242 239 235 223 222 224 219 215 204 198 176 239 215 195 232 246 259 261 223 203 204 193 188 103 28 333 347 241 171 112 145 97
293 291 284 277 271 264 270 272 264 252 252 247 264 277 258 242 231 226 222 217 216 214 216 197 179 187 214 197 199 204 223 235 224 220 188 171 172 155 138 124 357 346 184 199 127 53 59
289 284 287 264 267 272 268 260 259 250 257 239 257 270 250 235 221 217 217 211 218 215 224 177 166 185 194 201 196 172 179 195 187 211 219 178 193 168 185 175 177 207 211 312 222 45 256
304 304 294 285 259 258 258 255 256 239 239 240 249 263 243 225 202 206 200 202 203 173 206 193 192 139 144 159 175 182 181 182 178 169 180 208 209 205 197 205 196 164 188 220 302 35 322
295 288 281 279 279 246 249 244 232 236 235 244 247 246 220 189 193 198 200 210 215 192 152 217 174 146 147 147 138 172 180 184 186 183 198 158 218 221 223 179 151 219 184 189 176 78 292
294 285 278 265 263 250 233 234 231 231 227 223 220 201 182 184 192 201 207 224 241 213 73 172 165 183 148 169 153 168 184 196 197 195 193 209 184 164 204 186 182 201 207 212 207 149 238
298 288 276 262 255 245 219 219 223 219 220 212 196 181 179 181 187 200 210 216 190 180 336 157 164 162 183 177 105 168 174 180 201 205 210 247 100 192 191 195 189 193 189 125 117 248 239
305 293 275 257 243 229 206 209 210 207 208 192 180 175 174 172 208 179 206 203 196 172 231 134 147 163 162 180 138 179 173 169 159 152 185 155 179 180 195 193 183 218 151 131 120 219 304
315 299 277 248 229 211 201 199 197 193 191 180 174 171 170 177 157 192 185 179 169 193 235 153 121 185 143 143 182 147 160 137 128 123 141 89 360 171 167 97 188 132 110 92 119 338 271
340 322 275 224 200 189 183 188 181 179 175 167 167 162 164 158 136 151 159 147 308 231 70 128 167 185 122 151 155 168 170 163 159 156 169 151 151 137 169 113 147 156 163 133 161 189 239
17 27 95 145 160 163 168 170 166 166 161 162 159 157 156 165 156 169 138 201 222 50 2 13 303 131 122 119 156 175 169 166 197 215 155 180 185 177 184 199 182 190 187 165 211 209 202
47 64 89 117 133 146 154 155 156 152 146 150 149 156 140 141 152 165 224 236 35 5 336 308 78 146 117 140 152 159 175 178 162 197 199 187 140 160 177 155 147 176 210 15 82 31 302
71 81 92 106 121 133 139 145 144 143 148 147 144 131 96 133 156 144 66 94 22 359 316 319 64 13 88 39 129 143 118 17 177 222 309 161 123 194 155 177 172 201 153 137 215 196 233
80 86 95 105 113 119 126 131 138 145 150 156 128 86 67 89 124 59 76 66 48 14 1 24 23 65 41 58 35 70 42 62 354 276 250 117 107 134 155 212 183 170 177 213 194 249 258
83 90 96 103 110 116 124 132 137 139 140 164 80 76 89 49 57 19 66 54 327 4 38 38 36 58 46 36 33 71 74 47 351 315 138 354 65 150 168 49 321 228 207 200 207 207 244
83 88 93 98 106 114 121 131 139 140 140 129 76 82 8 92 119 107 64 31 74 37 35 56 31 36 49 53 80 43 68 14 20 50 110 159 164 129 153 304 260 223 217 233 237 338 222
91 92 91 94 100 101 104 115 138 122 113 112 101 57 37 60 69 96 137 60 80 43 59 60 57 90 45 56 54 134 99 55 26 67 45 66 72 23 160 66 327 195 217 215 220 224 221
99 97 99 97 94 101 82 122 150 131 42 36 72 77 62 53 44 76 56 53 48 49 73 34 59 60 53 97 74 92 94 121 48 26 61 6 116 124 124 107 130 235 238 217 222 235 241
108 105 110 97 100 83 64 107 157 203 332 5 100 130 86 78 16 74 11 28 61 44 16 38 82 53 56 80 60 109 79 43 53 65 49 12 128 159 159 172 157 236 243 249 242 249 252
103 95 93 81 73 76 71 66 81 113 138 103 116 123 113 7 26 62 48 99 76 107 54 63 53 86 76 62 50 42 52 63 73 40 82 22 119 306 153 174 317 270 227 216 232 234 234
111 90 84 82 74 69 76 76 75 80 107 125 134 122 103 109 75 77 121 109 89 55 101 62 44 57 71 30 65 66 57 50 47 46 359 69 80 6 85 251 207 114 21 16 254 246 246
141 108 82 84 84 78 78 82 83 88 94 112 131 113 112 105 110 112 124 117 96 80 69 69 47 58 42 38 99 108 42 36 5 15 250 257 81 103 184 235 318 264 82 204 196 175 47
174 162 139 117 109 100 85 77 74 73 71 92 97 107 99 117 199 133 112 133 116 87 88 56 42 91 58 68 76 106 106 31 109 75 18 231 272 297 143 243 235 109 108 348 245 216 90
194 189 182 173 155 138 116 103 88 75 74 74 83 94 101 100 147 144 131 156 134 111 87 133 157 69 23 152 112 118 124 353 177 164 147 136 202 219 229 266 282 253 263 323 178 105 359
194 193 193 191 193 194 180 121 73 74 86 76 72 79 104 106 155 166 138 132 140 170 166 158 147 166 100 101 176 133 189 162 187 153 173 177 179 192 208 246 258 177 92 204 68 286 340
203 200 202 201 205 214 224 247 276 286 336 66 128 125 122 127 164 176 171 165 165 157 147 164 191 156 163 108 170 132 170 170 2 220 206 215 202 191 204 221 239 187 235 206 278 305 307
Wind_Speed_850mb
31 30 28 32 37 36 37 38 26 31 27 29 32 29 26 30 28 26 33 30 26 22 25 19 24 38 28 13 18 19 10 21 18 17 19 7 3 13 4 21 10 3 4 6 5 8 15
38 40 42 40 43 43 38 27 40 35 31 30 31 29 31 28 31 25 33 32 29 24 26 24 17 26 35 24 19 22 16 11 4 18 25 19 10 11 9 10 17 9 2 8 8 13 11
41 36 30 38 36 38 27 28 28 32 28 29 34 32 33 30 32 26 33 31 28 26 27 27 19 15 25 39 28 20 24 18 2 19 24 20 19 11 9 8 24 12 6 12 12 8 6
38 38 40 40 32 31 36 43 39 37 34 32 31 27 27 32 31 28 31 30 32 27 32 33 26 18 10 32 30 38 38 45 15 11 28 31 29 26 9 6 24 9 2 12 14 7 5
40 42 47 42 34 40 43 40 31 34 34 36 31 28 26 28 30 32 28 32 30 26 22 38 39 19 6 17 40 31 35 47 27 23 11 33 38 14 16 12 7 9 12 12 10 8 3
43 44 46 45 41 35 31 28 28 31 27 35 31 26 24 25 30 31 24 31 23 41 23 51 26 14 16 20 44 31 31 29 28 28 13 16 14 14 17 18 12 7 2 5 8 11 4
47 39 35 37 43 38 30 27 23 27 24 24 28 23 21 25 32 27 27 25 16 14 38 12 32 2 18 23 30 36 41 35 26 34 17 24 12 25 38 34 13 30 16 9 12 13 8
53 54 51 51 35 42 30 27 22 17 27 22 21 15 18 28 29 26 29 24 27 7 9 7 31 13 16 23 18 36 36 28 31 30 37 14 26 32 29 19 23 20 22 29 11 4 7
55 51 48 45 48 34 34 30 24 23 21 24 16 14 23 28 23 26 24 26 23 15 6 13 23 19 17 15 15 46 45 22 26 30 30 28 6 16 31 31 23 25 32 23 4 9 3
56 53 50 42 42 40 37 32 26 23 19 21 18 22 24 21 15 19 18 22 19 20 5 4 19 15 26 14 8 36 46 25 10 27 22 21 8 16 23 30 30 25 9 13 9 4 17
54 50 45 43 42 36 38 34 27 22 19 22 22 25 22 22 7 18 17 22 25 14 10 17 14 18 26 13 30 22 33 10 22 16 10 9 14 18 22 24 25 12 17 19 11 8 9
50 47 41 40 37 39 42 35 28 23 21 25 27 24 20 14 12 15 18 16 11 9 10 5 8 13 17 8 13 29 22 12 17 13 3 7 7 5 4 10 12 28 29 18 7 3 10
45 36 27 30 36 42 45 37 28 24 27 29 32 28 22 19 10 25 23 16 5 6 3 5 4 12 15 12 18 39 34 27 18 17 20 14 10 7 19 23 23 15 25 8 7 9 12
47 39 23 30 39 46 46 36 28 27 33 35 36 29 20 15 26 23 14 3 6 3 6 4 4 12 9 7 6 30 35 26 9 7 25 24 12 22 19 18 18 28 26 8 12 13 5
47 48 45 47 51 52 47 37 32 36 38 38 34 26 24 24 23 20 8 4 6 6 7 7 2 4 5 5 7 11 24 30 17 11 11 19 12 21 27 8 26 17 17 3 7 3 2
56 60 58 56 56 52 44 37 40 44 46 44 35 26 18 12 14 5 5 6 4 6 9 6 7 11 5 7 8 6 8 3 9 5 10 5 12 13 13 9 11 10 19 7 3 9 11
57 57 58 58 53 45 40 43 49 47 45 36 25 11 8 9 12 11 5 7 5 9 10 15 9 4 11 6 7 7 8 5 7 4 3 4 3 9 15 17 24 11 14 8 6 6 6
50 53 50 48 45 44 46 49 46 40 31 23 7 6 8 8 10 6 4 3 4 6 10 8 7 11 11 12 13 9 8 10 6 8 10 4 6 10 15 6 10 24 20 22 7 7 10
47 48 46 45 45 45 43 36 37 31 26 5 9 7 15 4 6 8 1 3 10 7 12 7 8 12 8 8 9 8 7 12 18 5 4 6 2 10 7 4 1 12 25 21 24 5 18
50 52 50 48 49 39 26 31 33 19 9 8 6 4 15 20 10 6 6 5 5 15 14 13 7 8 6 13 14 9 8 6 12 14 14 7 6 6 1 9 5 13 25 28 29 14 10
41 42 43 38 34 28 26 23 22 13 11 8 7 4 4 4 13 11 6 4 4 8 10 16 10 17 6 8 10 8 11 9 12 11 7 6 7 6 9 8 2 5 15 32 37 41 22
25 27 28 23 18 11 15 18 14 1 8 3 6 10 12 8 5 10 10 7 8 5 13 11 13 15 19 13 14 5 2 7 7 7 5 5 7 9 6 5 7 5 15 17 29 35 29
25 23 20 19 20 18 16 14 7 1 3 4 18 30 11 4 2 2 4 3 8 6 14 16 9 12 17 15 15 11 8 8 8 5 4 3 4 1 8 2 2 10 19 26 23 22 26
15 15 17 19 21 22 17 17 18 18 14 26 29 15 9 5 2 6 12 14 14 12 8 9 12 7 5 3 4 8 14 12 8 5 6 4 2 2 4 3 7 6 7 7 15 29 23
10 9 11 14 17 19 23 22 20 18 16 9 14 10 9 8 13 11 16 16 16 15 11 13 12 7 5 3 3 3 4 5 10 9 3 6 1 4 4 10 16 8 4 9 13 3 9
14 11 7 8 11 15 17 19 21 23 24 12 16 16 12 20 7 14 11 8 5 5 4 6 9 11 5 5 2 2 3 2 3 3 12 6 4 5 2 7 10 11 7 10 2 6 12
20 17 12 8 7 8 11 14 15 16 19 19 20 15 12 13 15 19 5 6 8 7 5 4 3 2 6 2 3 2 5 3 5 8 7 7 5 14 10 8 11 10 7 5 3 4 15
24 22 18 15 12 11 7 4 6 7 8 10 14 11 8 9 22 11 11 9 10 8 5 13 7 2 1 2 1 3 3 5 5 6 10 13 13 9 10 9 16 18 3 8 7 7 17
30 25 21 18 14 11 10 8 6 3 1 2 5 7 11 8 16 17 10 9 9 13 11 19 2 5 7 4 1 4 3 3 3 2 12 9 12 5 16 11 6 12 17 13 13 29 35
Wind_Direction_850mb
295 288 277 281 280 281 277 264 271 268 269 278 272 263 264 250 253 260 234 235 230 248 243 230 216 207 215 225 244 260 158 187 198 186 203 143 134 127 127 329 328 316 94 81 81 125 166
280 279 277 275 284 289 280 278 256 266 267 275 277 268 254 255 250 258 229 230 223 230 235 220 230 188 187 212 247 226 113 81 210 201 196 181 131 123 89 326 324 351 16 119 100 136 150
295 270 278 272 274 279 267 278 286 256 263 267 279 284 249 248 246 247 224 226 225 220 216 213 215 194 199 219 214 223 226 246 132 221 204 192 187 150 119 329 326 298 204 161 114 113 117
295 284 290 291 263 266 268 274 277 261 257 262 271 288 251 242 239 235 223 222 224 219 215 204 198 176 239 215 195 232 246 259 261 223 203 204 193 188 103 28 333 347 241 171 112 145 97
293 291 284 277 271 264 270 272 264 252 252 247 264 277 258 242 231 226 222 217 216 214 216 197 179 187 214 197 199 204 223 235 224 220 188 171 172 155 138 124 357 346 184 199 127 53 59
289 284 287 264 267 272 268 260 259 250 257 239 257 270 250 235 221 217 217 211 218 215 224 177 166 185 194 201 196 172 179 195 187 211 219 178 193 168 185 175 177 207 211 312 222 45 256
304 304 294 285 259 258 258 255 256 239 239 240 249 263 243 225 202 206 200 202 203 173 206 193 192 139 144 159 175 182 181 182 178 169 180 208 209 205 197 205 196 164 188 220 302 35 322
295 288 281 279 279 246 249 244 232 236 235 244 247 246 220 189 193 198 200 210 215 192 152 217 174 146 147 147 138 172 180 184 186 183 198 158 218 221 223 179 151 219 184 189 176 78 292
294 285 278 265 263 250 233 234 231 231 227 223 220 201 182 184 192 201 207 224 241 213 73 172 165 183 148 169 153 168 184 196 197 195 193 209 184 164 204 186 182 201 207 212 207 149 238
298 288 276 262 255 245 219 219 223 219 220 212 196 181 179 181 187 200 210 216 190 180 336 157 164 162 183 177 105 168 174 180 201 205 210 247 100 192 191 195 189 193 189 125 117 248 239
305 293 275 257 243 229 206 209 210 207 208 192 180 175 174 172 208 179 206 203 196 172 231 134 147 163 162 180 138 179 173 169 159 152 185 155 179 180 195 193 183 218 151 131 120 219 304
315 299 277 248 229 211 201 199 197 193 191 180 174 171 170 177 157 192 185 179 169 193 235 153 121 185 143 143 182 147 160 137 128 123 141 89 360 171 167 97 188 132 110 92 119 338 271
340 322 275 224 200 189 183 188 181 179 175 167 167 162 164 158 136 151 159 147 308 231 70 128 167 185 122 151 155 168 170 163 159 156 169 151 151 137 169 113 147 156 163 133 161 189 239
17 27 95 145 160 163 168 170 166 166 161 162 159 157 156 165 156 169 138 201 222 50 2 13 303 131 122 119 156 175 169 166 197 215 155 180 185 177 184 199 182 190 187 165 211 209 202
47 64 89 117 133 146 154 155 156 152 146 150 149 156 140 141 152 165 224 236 35 5 336 308 78 146 117 140 152 159 175 178 162 197 199 187 140 160 177 155 147 176 210 15 82 31 302
71 81 92 106 121 133 139 145 144 143 148 147 144 131 96 133 156 144 66 94 22 359 316 319 64 13 88 39 129 143 118 17 177 222 309 161 123 194 155 177 172 201 153 137 215 196 233
80 86 95 105 113 119 126 131 138 145 150 156 128 86 67 89 124 59 76 66 48 14 1 24 23 65 41 58 35 70 42 62 354 276 250 117 107 134 155 212 183 170 177 213 194 249 258
83 90 96 103 110 116 124 132 137 139 140 164 80 76 89 49 57 19 66 54 327 4 38 38 36 58 46 36 33 71 74 47 351 315 138 354 65 150 168 49 321 228 207 200 207 207 244
83 88 93 98 106 114 121 131 139 140 140 129 76 82 8 92 119 107 64 31 74 37 35 56 31 36 49 53 80 43 68 14 20 50 110 159 164 129 153 304 260 223 217 233 237 338 222
91 92 91 94 100 101 104 115 138 122 113 112 101 57 37 60 69 96 137 60 80 43 59 60 57 90 45 56 54 134 99 55 26 67 45 66 72 23 160 66 327 195 217 215 220 224 221
99 97 99 97 94 101 82 122 150 131 42 36 72 77 62 53 44 76 56 53 48 49 73 34 59 60 53 97 74 92 94 121 48 26 61 6 116 124 124 107 130 235 238 217 222 235 241
108 105 110 97 100 83 64 107 157 203 332 5 100 130 86 78 16 74 11 28 61 44 16 38 82 53 56 80 60 109 79 43 53 65 49 12 128 159 159 172 157 236 243 249 242 249 252
103 95 93 81 73 76 71 66 81 113 138 103 116 123 113 7 26 62 48 99 76 107 54 63 53 86 76 62 50 42 52 63 73 40 82 22 119 306 153 174 317 270 227 216 232 234 234
111 90 84 82 74 69 76 76 75 80 107 125 134 122 103 109 75 77 121 109 89 55 101 62 44 57 71 30 65 66 57 50 47 46 359 69 80 6 85 251 207 114 21 16 254 246 246
141 108 82 84 84 78 78 82 83 88 94 112 131 113 112 105 110 112 124 117 96 80 69 69 47 58 42 38 99 108 42 36 5 15 250 257 81 103 184 235 318 264 82 204 196 175 47
174 162 139 117 109 100 85 77 74 73 71 92 97 107 99 117 199 133 112 133 116 87 88 56 42 91 58 68 76 106 106 31 109 75 18 231 272 297 143 243 235 109 108 348 245 216 90
194 189 182 173 155 138 116 103 88 75 74 74 83 94 101 100 147 144 131 156 134 111 87 133 157 69 23 152 112 118 124 353 177 164 147 136 202 219 229 266 282 253 263 323 178 105 359
194 193 193 191 193 194 180 121 73 74 86 76 72 79 104 106 155 166 138 132 140 170 166 158 147 166 100 101 176 133 189 162 187 153 173 177 179 192 208 246 258 177 92 204 68 286 340
203 200 202 201 205 214 224 247 276 286 336 66 128 125 122 127 164 176 171 165 165 157 147 164 191 156 163 108 170 132 170 170 2 220 206 215 202 191 204 221 239 187 235 206 278 305 307